Terug naar catalogus

TIANLIAN-2 05

ActiefCommunicatieGEO
NORAD 63662·PAYLOAD·🇨🇳 China

Gelanceerd Apr 27, 2025 vanaf Xichang Satellite Launch Center

Loading…

TLE

VersSource: Space-Track

Epoch: Sep 14, 2026, 19:01 UTC

1 63662U 25084A   26257.79304102  .00000114  00000-0  00000+0 0  9995
2 63662   4.2306 278.8652 0001192 201.1662 179.6225  1.00274146  5281

Volg TIANLIAN-2 05 in realtime met AllMySat

Download on the App Store